DW7857 Weather Reports


Display with metric or nautical units.
time (UTC)temp
F
wind
direction
speed
MPH
gust
MPH
rain 1hr
in
rain 24hr
in
rain mn
in
humidity
%
barometer
mb
20190825132024 85 135 4.0 5.0 0.00 0.00 0.00 35 1008.1
20190825131024 86 177 2.0 3.0 0.00 0.00 0.00 40 1008.1
20190825130026 84 135 4.0 5.0 0.00 0.00 0.00 42 1007.9
20190825125024 86 82 2.0 4.0 0.00 0.00 0.00 42 1008.1
20190825124024 85 300 2.0 4.0 0.00 0.00 0.00 42 1007.9
20190825123025 84 60 3.0 4.0 0.00 0.00 0.00 43 1008.0
20190825122024 84 326 3.0 7.0 0.00 0.00 0.00 45 1008.0
20190825121024 83 352 3.0 4.0 0.00 0.00 0.00 48 1007.8
20190825120025 82 44 5.0 7.0 0.00 0.00 0.00 50 1008.0
20190825115024 81 330 4.0 6.0 0.00 0.00 0.00 53 1007.6
20190825114024 82 38 3.0 4.0 0.00 0.00 0.00 48 1007.8
20190825113025 82 357 3.0 6.0 0.00 0.00 0.00 50 1007.9
20190825112024 81 44 4.0 8.0 0.00 0.00 0.00 54 1008.0
20190825111024 80 348 4.0 8.0 0.00 0.00 0.00 54 1007.9
20190825110024 80 68 3.0 5.0 0.00 0.00 0.00 54 1008.0
20190825105025 79 41 4.0 6.0 0.00 0.00 0.00 55 1008.1
20190825104024 79 3 4.0 4.0 0.00 0.00 0.00 56 1007.8
20190825103025 78 33 4.0 7.0 0.00 0.00 0.00 56 1008.1
20190825102024 78 33 4.0 6.0 0.00 0.00 0.00 57 1008.0
20190825101024 78 346 3.0 5.0 0.00 0.00 0.00 59 1007.9
20190825100024 76 22 4.0 5.0 0.00 0.00 0.00 58 1007.8
20190825095024 76 15 4.0 5.0 0.00 0.00 0.00 58 1007.8
20190825094024 76 45 4.0 5.0 0.00 0.00 0.00 56 1008.1
20190825093024 76 32 4.0 5.0 0.00 0.00 0.00 56 1007.9
20190825092024 75 339 4.0 6.0 0.00 0.00 0.00 59 1007.8
20190825091024 75 10 3.0 5.0 0.00 0.00 0.00 57 1007.6
20190825090025 75 13 4.0 6.0 0.00 0.00 0.00 58 1007.7
20190825085024 75 38 3.0 4.0 0.00 0.00 0.00 58 1007.8
20190825084024 73 42 4.0 6.0 0.00 0.00 0.00 59 1007.6
20190825083026 74 323 2.0 5.0 0.00 0.00 0.00 57 1007.7
20190825082024 73 0 0.0 0.0 0.00 0.00 0.00 58 1007.7
20190825081024 72 0 0.0 0.0 0.00 0.00 0.00 60 1007.5
20190825080024 73 0 0.0 0.0 0.00 0.00 0.00 59 1007.3
20190825075024 75 0 0.0 0.0 0.00 0.00 0.00 58 1007.3
20190825074024 74 0 0.0 0.0 0.00 0.00 0.00 60 1007.2
20190825073025 74 0 0.0 0.0 0.00 0.00 0.00 60 1007.0
20190825072024 71 0 0.0 0.0 0.00 0.00 0.00 72 1007.0
20190825071024 67 0 0.0 0.0 0.00 0.00 0.00 74 1006.9
20190825070024 65 0 0.0 0.0 0.00 0.00 0.00 75 1006.6
20190825065024 64 0 0.0 0.0 0.00 0.00 0.00 77 1006.7
20190825064024 64 0 0.0 0.0 0.00 0.00 0.00 82 1006.5
20190825063024 62 0 0.0 0.0 0.00 0.00 0.00 85 1006.8
20190825062024 60 0 0.0 0.0 0.00 0.00 0.00 84 1006.5
20190825061024 60 0 0.0 0.0 0.00 0.00 0.00 84 1006.4
20190825060024 60 0 0.0 0.0 0.00 0.00 0.00 83 1006.6
20190825055024 60 0 0.0 0.0 0.00 0.00 0.00 83 1006.3
20190825054024 61 0 0.0 0.0 0.00 0.00 0.00 83 1006.2
20190825053024 61 0 0.0 0.0 0.00 0.00 0.00 83 1006.2
20190825052024 61 0 0.0 0.0 0.00 0.00 0.00 83 1005.9
20190825051024 61 0 0.0 0.0 0.00 0.00 0.00 83 1005.9
20190825050024 61 0 0.0 0.0 0.00 0.00 0.00 84 1005.8
20190825045024 61 0 0.0 0.0 0.00 0.00 0.00 84 1005.6
20190825044024 60 0 0.0 0.0 0.00 0.00 0.00 84 1005.5
20190825043024 60 0 0.0 0.0 0.00 0.00 0.00 84 1005.3
20190825042024 60 0 0.0 0.0 0.00 0.00 0.00 84 1005.7
20190825041024 60 0 0.0 0.0 0.00 0.00 0.00 84 1005.6
20190825040024 60 0 0.0 0.0 0.00 0.00 0.00 85 1005.5
20190825035024 59 0 0.0 0.0 0.00 0.00 0.00 84 1005.6
20190825034024 59 0 0.0 0.0 0.00 0.00 0.00 84 1005.4
20190825033024 59 0 0.0 0.0 0.00 0.00 0.00 84 1005.9
20190825032024 59 0 0.0 0.0 0.00 0.00 0.00 83 1005.8
20190825031024 59 0 0.0 0.0 0.00 0.00 0.00 82 1005.8
20190825030024 59 0 0.0 0.0 0.00 0.00 0.00 82 1005.8
20190825025024 60 0 0.0 0.0 0.00 0.00 0.00 82 1005.7
20190825024024 60 0 0.0 0.0 0.00 0.00 0.00 82 1005.8
20190825023024 60 0 0.0 0.0 0.00 0.00 0.00 82 1005.8
20190825022024 60 0 0.0 0.0 0.00 0.00 0.00 81 1006.0
20190825021024 60 0 0.0 0.0 0.00 0.00 0.00 80 1005.7
20190825020024 61 0 0.0 0.0 0.00 0.00 0.00 80 1005.7
20190825015024 61 90 0.0 1.0 0.00 0.00 0.00 80 1005.6
20190825014024 62 155 1.0 2.0 0.00 0.00 0.00 81 1005.9
20190825013024 61 172 0.0 2.0 0.00 0.00 0.00 80 1005.7
20190825012024 61 0 0.0 0.0 0.00 0.00 0.00 78 1005.8
20190825011024 62 12 0.0 2.0 0.00 0.00 0.00 77 1005.7
20190825010024 62 0 0.0 0.0 0.00 0.00 0.00 76 1006.0
20190825005024 62 35 1.0 2.0 0.00 0.00 0.00 75 1005.9
20190825004024 63 0 0.0 0.0 0.00 0.00 0.00 74 1006.1
20190825003024 63 0 0.0 0.0 0.00 0.00 0.00 74 1006.2
20190825002024 63 270 0.0 1.0 0.00 0.00 0.00 74 1006.1
20190825001024 63 333 0.0 1.0 0.00 0.00 0.00 73 1006.3
20190825000019 64 46 0.0 2.0 0.00 0.00 0.00 70 1006.0
20190824235024 64 0 0.0 0.0 0.00 0.00 0.00 70 1006.1
20190824234024 64 141 0.0 1.0 0.00 0.00 0.00 70 1006.1
20190824233024 64 135 0.0 1.0 0.00 0.00 0.00 68 1006.5
20190824232024 64 146 0.0 1.0 0.00 0.00 0.00 68 1006.5
20190824231024 64 90 0.0 2.0 0.00 0.00 0.00 67 1006.4
20190824230025 64 142 1.0 2.0 0.00 0.00 0.00 66 1006.5
20190824225024 64 109 0.0 1.0 0.00 0.00 0.00 65 1006.5
20190824224025 65 138 1.0 2.0 0.00 0.00 0.00 64 1006.6
20190824223025 65 114 1.0 2.0 0.00 0.00 0.00 63 1006.4
20190824222025 66 166 2.0 3.0 0.00 0.00 0.00 62 1006.5
20190824221024 66 183 2.0 3.0 0.00 0.00 0.00 63 1006.5
20190824220025 66 175 1.0 3.0 0.00 0.00 0.00 62 1006.5
20190824215025 67 108 0.0 1.0 0.00 0.00 0.00 61 1006.3
20190824214024 67 144 1.0 2.0 0.00 0.00 0.00 60 1006.4
20190824213024 68 172 1.0 2.0 0.00 0.00 0.00 60 1006.2
20190824212025 68 170 1.0 4.0 0.00 0.00 0.00 60 1006.4
20190824211025 67 215 0.0 2.0 0.00 0.00 0.00 61 1006.3
20190824210025 67 0 0.0 0.0 0.00 0.00 0.00 62 1006.3
20190824205025 68 0 0.0 0.0 0.00 0.00 0.00 62 1006.0
20190824204025 68 0 0.0 0.0 0.00 0.00 0.00 60 1006.0
20190824203025 68 0 0.0 0.0 0.00 0.00 0.00 60 1006.1
20190824202025 69 0 0.0 0.0 0.00 0.00 0.00 59 1006.2
20190824201025 69 135 0.0 1.0 0.00 0.00 0.00 58 1006.3
20190824200025 70 1 0.0 2.0 0.00 0.00 0.00 57 1006.1
20190824195025 71 22 1.0 3.0 0.00 0.00 0.00 54 1005.9
20190824194025 71 99 0.0 1.0 0.00 0.00 0.00 53 1005.8
20190824193025 72 137 1.0 2.0 0.00 0.00 0.00 53 1005.8
20190824192025 72 224 1.0 2.0 0.00 0.00 0.00 53 1006.0
20190824191026 72 169 0.0 2.0 0.00 0.00 0.00 52 1006.0
20190824190025 73 205 1.0 2.0 0.00 0.00 0.00 49 1005.7
20190824185025 73 225 1.0 3.0 0.00 0.00 0.00 48 1005.9
20190824184025 74 261 1.0 2.0 0.00 0.00 0.00 46 1005.7
20190824183025 75 171 2.0 3.0 0.00 0.00 0.00 45 1005.6
20190824182025 76 195 2.0 4.0 0.00 0.00 0.00 44 1006.0
20190824181025 77 166 2.0 2.0 0.00 0.00 0.00 43 1005.8
20190824180025 78 157 4.0 8.0 0.00 0.00 0.00 42 1006.0
20190824175025 79 100 4.0 8.0 0.00 0.00 0.00 40 1006.1
20190824174025 83 144 3.0 6.0 0.00 0.00 0.00 33 1006.0
20190824173025 83 89 4.0 11.0 0.00 0.00 0.00 32 1005.9
20190824172025 83 168 3.0 8.0 0.00 0.00 0.00 31 1006.1
20190824171025 83 165 3.0 9.0 0.00 0.00 0.00 31 1006.1
20190824170024 83 162 5.0 9.0 0.00 0.00 0.00 31 1006.3
20190824165025 83 101 5.0 7.0 0.00 0.00 0.00 31 1006.4
20190824164025 83 51 5.0 11.0 0.00 0.00 0.00 31 1006.2
20190824163025 84 118 5.0 8.0 0.00 0.00 0.00 30 1006.2
20190824162025 85 90 4.0 8.0 0.00 0.00 0.00 31 1006.5
20190824161025 84 149 6.0 10.0 0.00 0.00 0.00 30 1006.7
20190824160025 84 232 6.0 9.0 0.00 0.00 0.00 30 1006.4
20190824155025 84 153 7.0 12.0 0.00 0.00 0.00 30 1006.7
20190824154025 85 194 5.0 7.0 0.00 0.00 0.00 31 1006.8
20190824153025 85 292 6.0 8.0 0.00 0.00 0.00 32 1006.6
20190824152025 85 256 6.0 9.0 0.00 0.00 0.00 33 1006.7
20190824151025 84 165 5.0 8.0 0.00 0.00 0.00 35 1006.7
20190824150025 85 235 6.0 8.0 0.00 0.00 0.00 32 1007.0
20190824145025 86 184 5.0 8.0 0.00 0.00 0.00 33 1006.8
20190824144025 86 152 5.0 7.0 0.00 0.00 0.00 33 1007.0
20190824143025 86 158 5.0 7.0 0.00 0.00 0.00 34 1007.0
20190824142025 85 120 4.0 7.0 0.00 0.00 0.00 32 1007.0
20190824141025 84 227 5.0 9.0 0.00 0.00 0.00 34 1007.0
20190824140025 84 170 5.0 8.0 0.00 0.00 0.00 33 1007.2
20190824135025 85 151 5.0 8.0 0.00 0.00 0.00 32 1007.1
20190824134025 83 144 6.0 10.0 0.00 0.00 0.00 34 1007.3
20190824133025 84 94 6.0 10.0 0.00 0.00 0.00 33 1007.3